Regional Weather Roundup
Issued by NWS Columbia, SC

Home | Current Version | Previous Version | Text Only | Print | Product List | Glossary On
Versions: 1 2 3 4 5 6 7 8 9 10 11 12 13 14 15 16 17 18 19 20 21 22 23 24 25 26 27 28 29 30 31 32 33 34 35 36 37 38 39 40 41 42 43 44 45 46 47 48 49 50
000
ASUS42 KCAE 041710
RWRCAE
SOUTH CAROLINA REGIONAL WEATHER ROUNDUP
NATIONAL WEATHER SERVICE COLUMBIA SC
100 PM EDT FRI SEP 04 2015

Note: "fair" indicates few or no clouds below 12,000 feet with no
significant weather and/or obstructions to visibility.

SCZ003-006-007-009-010-041800-
UPSTATE

CITY           SKY/WX    TMP DP  RH WIND       PRES   REMARKS
ANDERSON       MOSUNNY   89  67  47 CALM      30.02F
CLEMSON        SUNNY     91  68  46 S6        30.04F HX  95
GREENVILLE     PTSUNNY   91  63  39 NE8       30.04F
GREENWOOD      SUNNY     90  69  50 CALM      30.02F
GREER          MOSUNNY   91  63  39 NW6       30.02F
ROCK HILL      SUNNY     91  65  41 VRB3      30.02F
$$

SCZ027-028-031-032-036-041800-
CENTRAL

CITY           SKY/WX    TMP DP  RH WIND       PRES   REMARKS
COLUMBIA APT   MOSUNNY   93  67  42 VRB5      29.97F HX  96
COLUMBIA OWENS MOSUNNY   92  67  43 VRB3      29.98F HX  95
MCENTIRE ANGB  MOSUNNY   90  72  54 CALM      29.98F HX  97
ORANGEBURG     LGT RAIN  89  70  53 W5        29.97F
SUMTER SHAW    MOSUNNY   91  69  48 E7        29.96F HX  96
$$

SCZ034-044-045-048-050-041800-
COAST

CITY           SKY/WX    TMP DP  RH WIND       PRES   REMARKS
CHARLESTON APT MOSUNNY   90  72  55 N5        29.96F HX  97
BEAUFORT       MOSUNNY   92  73  53 VRB5      29.97F HX 100
$$




USA.gov is the U.S. government's official web portal to all federal, state and local government web resources and services.